SBAFSBRJ

Guest
Details From SBAF - Campo Delio Jardim de Mattos
To SBRJ - Santos-Dumont
Flight Number -
Tags generated
Created
Modified
Stats Distance 12 nm / 23 km
Max Altitude 0 ft / 0 m
Waypoints 2
Social Downloads 1
Likes 0
Share VATSIM

Download

Looking for another format? Having issues loading an existing format? Contact us
Advertisement - Login to hide

Notes

Basic altitude profile: - Ascent Rate: 2500ft/min - Ascent Speed: 250kts - Cruise Altitude: 35000ft - Cruise Speed: 420kts - Descent Rate: 1500ft/min - Descent Speed: 250kts Options: - Use NATs: yes - Use PACOTS: yes - Use low airways: yes - Use high airways: yes

Route

SBAF SBRJ

ID Type Via Altitude Latitude Longitude Leg Dist Tot Dist Heading (true) Name
O SBAF APT - 0 ft / 0 m -22.87508˚ -43.38471˚ - 0 nm - Campo Delio Jardim de Mattos
O SBRJ APT - 0 ft / 0 m -22.91046˚ -43.16313˚ 12 nm 12 nm 100° / 100° Santos-Dumont

Altitude Profile

Advertisement - Login to hide

SBAF

Details ICAO SBAF
Name Campo Delio Jardim de Mattos
Region Brazil
Timezone America/Sao_Paulo (UTC-3.0)
Stats Elevation 110 ft / 34 m (AMSL)
Location -22.875083° -43.384709°
Runways 1
Magnetic Variation 22.755° W

METAR

Not found

TAF

TAF TAF SBAF 250300Z 2506/2518 14005KT 9999 FEW020 SCT040 TN18/2508Z TX27/2518Z PROB40 2508/2510 5000 BR SCT005 BECMG 2510/2512 SCT025 RMK PDW

Decode

Departure Runways

ID Width Length Bearing (true) Bearing (mag) Surface Threshold Offset Overrun Length
08 171 ft / 52 m 6,527 ft / 1,990 m 61.63° 84.38° Concrete 0 ft / 0 m 0 ft / 0 m
26 171 ft / 52 m 6,527 ft / 1,990 m 241.63° 264.38° Concrete 0 ft / 0 m 0 ft / 0 m

SBRJ

Details ICAO SBRJ (SDU)
Name Santos-Dumont
Region Brazil
Timezone Unknown (UTC+0.0)
Stats Elevation 11 ft / 3 m (AMSL)
Location -22.910460° -43.163133°
Runways 2
Magnetic Variation 22.826° W

METAR

SBRJ 250700Z 06001KT CAVOK 21/19 Q1021

Decode

TAF

TAF SBRJ 250230Z 2506/2518 01005KT 8000 BKN015TN20/2509Z TX25/2517Z BECMG 2509/2511 4000 BR BECMG 2512/2514 9999 NSW SCT020 BECMG 2514/2516 17010KT TEMPO 2516/2518 6000 RA BKN020 RMK PHQ

Decode

Destination Runways

ID Width Length Bearing (true) Bearing (mag) Surface Threshold Offset Overrun Length
02L 98 ft / 30 m 4,154 ft / 1,266 m 358.02° 20.85° Asphalt 0 ft / 0 m 80 ft / 24 m
02R 138 ft / 42 m 4,361 ft / 1,329 m 358.01° 20.84° Asphalt 0 ft / 0 m 80 ft / 24 m
20L 138 ft / 42 m 4,361 ft / 1,329 m 178.01° 200.84° Asphalt 0 ft / 0 m 80 ft / 24 m
20R 98 ft / 30 m 4,154 ft / 1,266 m 178.02° 200.85° Asphalt 0 ft / 0 m 95 ft / 29 m

Approach Navaids

Runway Type Ident Frequency Range Bearing (true) Bearing (mag) Slope Elevation
20L Localiser IRJ 111.10 MHz 18 nm / 33 km 172.42° 195.25° - 11 ft / 3 m (AMSL)